CZ-6A DEB

Satellite information

Favourite Embed

Satellite Type and Status

DEBRISIN ORBIT

Key statistics

Satellite CZ-6A DEB at a glance.

Uptime

1129

Days in orbit

Revolutions

≈ 14.6

Per day

Orbit

SSO

Sun Synchronous Orbit

Inclination

98.6

Latest

Satellite identification and parameters

Extended collection of information and parameters for CZ-6A DEB.

Object identification

Identified? True

Debris? True

Object name: CZ-6A DEB

International designator: 2022-151HF

Object number (NORAD): 54479

Object ID (CCSDS): 54479

Country: PEOPLES REPUBLIC OF CHINA (PRC)

Current information (Y/N): Y

RCS size: SMALL

Orbital parameters

Period: 98.572 minutes

Inclination: 98.6416 deg

SMA: 7068.546 km

Apoapsis: 752.376 km

Periapsis: 628.446 km

RAAN: 32.1846 deg

Eccentricy: 0.00876636

Argument of periapsis: 169.2998 deg

Mean anomaly: 191.0093 deg

Mean motion: 14.60856748 rev/day

Mean motion (dot): 0.00013773 rev/day2

B* drag term: 0.0026736978 1/REarth

Two-line elements (TLE)

Creation date: Dec. 14, 2025, 3:07 a.m.

Reference frame: TEME

Reference center: EARTH

Epoch: Dec. 13, 2025, 3:01 p.m. UTC

TLE line 0: 0 CZ-6A DEB

TLE line 1: 1 54479U 22151HF 25347.62612611 .00013773 00000-0 26737-2 0 9994

TLE line 2: 2 54479 98.6416 32.1846 0087664 169.2998 191.0093 14.60856748162566

Live tracking on map

Real-time ground track for satellite CZ-6A DEB.

In-orbit conjunctions

A list of the most updated potential collisions computed for object CZ-6A DEB.

Target Orbit TCA Probability of collision Miss distance Type
TIROS 8 LEO 2025-09-14 08:24:25 0.000148643 585.0 (m) PAYLOAD
IRIDIUM 16 LEO 2025-09-12 02:40:01 0.002180519 132.0 (m) PAYLOAD
RITE TARGET 2 SSO 2025-02-03 14:21:55 0.0001667259 969.0 (m) PAYLOAD
COSMOS 1624 LEO 2024-11-21 03:48:41 0.0001669891 507.0 (m) PAYLOAD
FENGYUN 1C DEB SSO 2024-06-30 13:02:07 0.000151008 427.0 (m) DEBRIS

Associated space launch

Chinese satellite reported for atmospheric/ocean/environmental/spatial parameter research purposes, details TBD.

CZ-6A DEB was lifted into orbit during the mission ‘Long March 6A | Yunhai 3’, on board a Long March 6A space rocket.

The launch took place on Nov. 11, 2022, 10:52 p.m. from Launch Complex 9A.

For more information about the launch, click the button.

Launch to space Long March 6A | Yunhai 3
Long March 6A | Yunhai 3

Agency: N/A

Status: Launch Successful

Launch date: Nov. 11, 2022, 10:52 p.m. UTC

Rocket: Long March 6A

Launch pad: Launch Complex 9A

Location: Taiyuan Satellite Launch Center, People's Republic of China

...

Latest news about this satellite

There are no fresh news available about this satellite. Check back as we update our databases every day.


Newsletter sign-up

Weekly statistics, charts and insights to help you stay on top of the space industry.